Location: ?????
(32.7281°N, 34.9563°E)
Time: 18:21:01
(UTC+00:00)

S3M - Pass Details

Date: 29 October 2020
Orbit: 950 x 1003 km, 83.0° (Epoch: 30 November)

Event Time Altitude Azimuth Distance (km) Brightness Sun altitude
Rises 15:24:38 0° 164° (SSE) 3,606 6.9 -7.5°
Reaches altitude 10° 15:27:15 10° 157° (SSE) 2,665 6.2 -8.1°
Maximum altitude 15:32:52 41° 90° (E) 1,355 4.3 -9.2°
Drops below altitude 10° 15:38:33 10° 22° (NNE) 2,694 6.0 -10.4°
Sets 15:41:12 0° 15° (NNE) 3,650 6.8 -11.0°
